Terminal Aerodrome Forecast
Issued by NWS Boston, MA

Home | Current Version | Previous Version | Text Only | Print | Product List | Glossary On
Versions: 1 2 3 4 5 6 7 8 9 10 11 12 13 14 15 16 17 18 19 20 21 22 23 24 25 26 27 28 29 30 31 32 33 34 35 36 37 38 39 40 41 42 43 44 45 46 47 48 49 50
000
FTUS41 KBOX 081720
TAFBOS
TAF
KBOS 081720Z 0818/0924 24009KT P6SM OVC060
     FM091800 29014G26KT P6SM BKN045
     FM092300 30012G27KT P6SM SCT070=

USA.gov is the U.S. government's official web portal to all federal, state and local government web resources and services.